﻿<?xml version="1.0" encoding="UTF-8" standalone="no" ?>
<gpx xmlns="http://www.topografix.com/GPX/1/1" creator="CompeGPS" version="1.1" xmlns:xsi="http://www.w3.org/2001/XMLSchema-instance" xsi:schemaLocation="http://www.topografix.com/GPX/1/1 http://www.topografix.com/GPX/1/1/gpx.xsd">
  <metadata>
    <link href="http://www.compegps.com">
      <text>CompeGPS TEAM, SL</text>
    </link>
    <time>2021-11-10T08:52:39Z</time>
    <bounds maxlat="38.266732" maxlon="-5.691089" minlat="38.163562" minlon="-5.907363"/>
  </metadata>
  <trk>
    <name>VV-La Jayona</name>
    <desc>Unknown Line Type</desc>
    <trkseg>
      <trkpt lat="38.163562" lon="-5.899930">
        <ele>604.9</ele>
        <time>1970-01-01T00:00:00Z</time>
      </trkpt>
      <trkpt lat="38.163758" lon="-5.900302">
        <ele>605.5</ele>
        <time>1970-01-01T00:00:00Z</time>
      </trkpt>
      <trkpt lat="38.164173" lon="-5.900916">
        <ele>604.6</ele>
        <time>1970-01-01T00:00:00Z</time>
      </trkpt>
      <trkpt lat="38.164504" lon="-5.901630">
        <ele>604.2</ele>
        <time>1970-01-01T00:00:00Z</time>
      </trkpt>
      <trkpt lat="38.164830" lon="-5.902552">
        <ele>605.6</ele>
        <time>1970-01-01T00:00:00Z</time>
      </trkpt>
      <trkpt lat="38.165179" lon="-5.903345">
        <ele>605.8</ele>
        <time>1970-01-01T00:00:00Z</time>
      </trkpt>
      <trkpt lat="38.165455" lon="-5.903798">
        <ele>605.0</ele>
        <time>1970-01-01T00:00:00Z</time>
      </trkpt>
      <trkpt lat="38.165734" lon="-5.904147">
        <ele>604.1</ele>
        <time>1970-01-01T00:00:00Z</time>
      </trkpt>
      <trkpt lat="38.166422" lon="-5.904511">
        <ele>599.9</ele>
        <time>1970-01-01T00:00:00Z</time>
      </trkpt>
      <trkpt lat="38.166928" lon="-5.904791">
        <ele>596.8</ele>
        <time>1970-01-01T00:00:00Z</time>
      </trkpt>
      <trkpt lat="38.167228" lon="-5.905089">
        <ele>595.0</ele>
        <time>1970-01-01T00:00:00Z</time>
      </trkpt>
      <trkpt lat="38.167504" lon="-5.905542">
        <ele>594.6</ele>
        <time>1970-01-01T00:00:00Z</time>
      </trkpt>
      <trkpt lat="38.168136" lon="-5.906502">
        <ele>594.8</ele>
        <time>1970-01-01T00:00:00Z</time>
      </trkpt>
      <trkpt lat="38.168513" lon="-5.907010">
        <ele>591.6</ele>
        <time>1970-01-01T00:00:00Z</time>
      </trkpt>
      <trkpt lat="38.168856" lon="-5.907232">
        <ele>589.3</ele>
        <time>1970-01-01T00:00:00Z</time>
      </trkpt>
      <trkpt lat="38.169243" lon="-5.907351">
        <ele>587.8</ele>
        <time>1970-01-01T00:00:00Z</time>
      </trkpt>
      <trkpt lat="38.169530" lon="-5.907363">
        <ele>587.6</ele>
        <time>1970-01-01T00:00:00Z</time>
      </trkpt>
      <trkpt lat="38.169859" lon="-5.907324">
        <ele>587.8</ele>
        <time>1970-01-01T00:00:00Z</time>
      </trkpt>
      <trkpt lat="38.170149" lon="-5.907205">
        <ele>586.9</ele>
        <time>1970-01-01T00:00:00Z</time>
      </trkpt>
      <trkpt lat="38.170545" lon="-5.906961">
        <ele>586.0</ele>
        <time>1970-01-01T00:00:00Z</time>
      </trkpt>
      <trkpt lat="38.170862" lon="-5.906584">
        <ele>585.1</ele>
        <time>1970-01-01T00:00:00Z</time>
      </trkpt>
      <trkpt lat="38.171122" lon="-5.906023">
        <ele>582.3</ele>
        <time>1970-01-01T00:00:00Z</time>
      </trkpt>
      <trkpt lat="38.171237" lon="-5.905508">
        <ele>579.6</ele>
        <time>1970-01-01T00:00:00Z</time>
      </trkpt>
      <trkpt lat="38.171275" lon="-5.904808">
        <ele>577.6</ele>
        <time>1970-01-01T00:00:00Z</time>
      </trkpt>
      <trkpt lat="38.171203" lon="-5.904390">
        <ele>579.5</ele>
        <time>1970-01-01T00:00:00Z</time>
      </trkpt>
      <trkpt lat="38.170954" lon="-5.903704">
        <ele>585.4</ele>
        <time>1970-01-01T00:00:00Z</time>
      </trkpt>
      <trkpt lat="38.170541" lon="-5.902987">
        <ele>588.5</ele>
        <time>1970-01-01T00:00:00Z</time>
      </trkpt>
      <trkpt lat="38.170208" lon="-5.902324">
        <ele>587.5</ele>
        <time>1970-01-01T00:00:00Z</time>
      </trkpt>
      <trkpt lat="38.170016" lon="-5.901797">
        <ele>586.5</ele>
        <time>1970-01-01T00:00:00Z</time>
      </trkpt>
      <trkpt lat="38.169989" lon="-5.901224">
        <ele>590.2</ele>
        <time>1970-01-01T00:00:00Z</time>
      </trkpt>
      <trkpt lat="38.169974" lon="-5.900185">
        <ele>592.0</ele>
        <time>1970-01-01T00:00:00Z</time>
      </trkpt>
      <trkpt lat="38.170023" lon="-5.899849">
        <ele>592.9</ele>
        <time>1970-01-01T00:00:00Z</time>
      </trkpt>
      <trkpt lat="38.170140" lon="-5.899282">
        <ele>593.1</ele>
        <time>1970-01-01T00:00:00Z</time>
      </trkpt>
      <trkpt lat="38.170376" lon="-5.898850">
        <ele>592.5</ele>
        <time>1970-01-01T00:00:00Z</time>
      </trkpt>
      <trkpt lat="38.170695" lon="-5.898421">
        <ele>593.2</ele>
        <time>1970-01-01T00:00:00Z</time>
      </trkpt>
      <trkpt lat="38.171036" lon="-5.897863">
        <ele>594.1</ele>
        <time>1970-01-01T00:00:00Z</time>
      </trkpt>
      <trkpt lat="38.171423" lon="-5.897151">
        <ele>594.4</ele>
        <time>1970-01-01T00:00:00Z</time>
      </trkpt>
      <trkpt lat="38.171494" lon="-5.896764">
        <ele>594.1</ele>
        <time>1970-01-01T00:00:00Z</time>
      </trkpt>
      <trkpt lat="38.171550" lon="-5.896169">
        <ele>593.5</ele>
        <time>1970-01-01T00:00:00Z</time>
      </trkpt>
      <trkpt lat="38.171501" lon="-5.895647">
        <ele>593.0</ele>
        <time>1970-01-01T00:00:00Z</time>
      </trkpt>
      <trkpt lat="38.171406" lon="-5.895332">
        <ele>593.4</ele>
        <time>1970-01-01T00:00:00Z</time>
      </trkpt>
      <trkpt lat="38.171196" lon="-5.894726">
        <ele>593.8</ele>
        <time>1970-01-01T00:00:00Z</time>
      </trkpt>
      <trkpt lat="38.170672" lon="-5.893536">
        <ele>595.0</ele>
        <time>1970-01-01T00:00:00Z</time>
      </trkpt>
      <trkpt lat="38.170402" lon="-5.892824">
        <ele>593.4</ele>
        <time>1970-01-01T00:00:00Z</time>
      </trkpt>
      <trkpt lat="38.170372" lon="-5.892382">
        <ele>593.2</ele>
        <time>1970-01-01T00:00:00Z</time>
      </trkpt>
      <trkpt lat="38.170408" lon="-5.891734">
        <ele>593.4</ele>
        <time>1970-01-01T00:00:00Z</time>
      </trkpt>
      <trkpt lat="38.170588" lon="-5.891117">
        <ele>591.5</ele>
        <time>1970-01-01T00:00:00Z</time>
      </trkpt>
      <trkpt lat="38.170886" lon="-5.890636">
        <ele>590.9</ele>
        <time>1970-01-01T00:00:00Z</time>
      </trkpt>
      <trkpt lat="38.171201" lon="-5.890336">
        <ele>590.8</ele>
        <time>1970-01-01T00:00:00Z</time>
      </trkpt>
      <trkpt lat="38.171684" lon="-5.889888">
        <ele>591.9</ele>
        <time>1970-01-01T00:00:00Z</time>
      </trkpt>
      <trkpt lat="38.172061" lon="-5.889591">
        <ele>593.9</ele>
        <time>1970-01-01T00:00:00Z</time>
      </trkpt>
      <trkpt lat="38.172401" lon="-5.889111">
        <ele>598.0</ele>
        <time>1970-01-01T00:00:00Z</time>
      </trkpt>
      <trkpt lat="38.172659" lon="-5.888601">
        <ele>599.7</ele>
        <time>1970-01-01T00:00:00Z</time>
      </trkpt>
      <trkpt lat="38.173011" lon="-5.887654">
        <ele>599.1</ele>
        <time>1970-01-01T00:00:00Z</time>
      </trkpt>
      <trkpt lat="38.173514" lon="-5.886349">
        <ele>595.8</ele>
        <time>1970-01-01T00:00:00Z</time>
      </trkpt>
      <trkpt lat="38.174306" lon="-5.884198">
        <ele>597.4</ele>
        <time>1970-01-01T00:00:00Z</time>
      </trkpt>
      <trkpt lat="38.174724" lon="-5.883020">
        <ele>597.0</ele>
        <time>1970-01-01T00:00:00Z</time>
      </trkpt>
      <trkpt lat="38.174985" lon="-5.882433">
        <ele>597.3</ele>
        <time>1970-01-01T00:00:00Z</time>
      </trkpt>
      <trkpt lat="38.175302" lon="-5.882030">
        <ele>598.2</ele>
        <time>1970-01-01T00:00:00Z</time>
      </trkpt>
      <trkpt lat="38.175743" lon="-5.881605">
        <ele>598.7</ele>
        <time>1970-01-01T00:00:00Z</time>
      </trkpt>
      <trkpt lat="38.176099" lon="-5.881308">
        <ele>598.0</ele>
        <time>1970-01-01T00:00:00Z</time>
      </trkpt>
      <trkpt lat="38.176638" lon="-5.881095">
        <ele>597.1</ele>
        <time>1970-01-01T00:00:00Z</time>
      </trkpt>
      <trkpt lat="38.177193" lon="-5.881013">
        <ele>597.5</ele>
        <time>1970-01-01T00:00:00Z</time>
      </trkpt>
      <trkpt lat="38.177562" lon="-5.881027">
        <ele>598.9</ele>
        <time>1970-01-01T00:00:00Z</time>
      </trkpt>
      <trkpt lat="38.178070" lon="-5.881203">
        <ele>601.6</ele>
        <time>1970-01-01T00:00:00Z</time>
      </trkpt>
      <trkpt lat="38.178599" lon="-5.881380">
        <ele>602.1</ele>
        <time>1970-01-01T00:00:00Z</time>
      </trkpt>
      <trkpt lat="38.179389" lon="-5.881801">
        <ele>597.8</ele>
        <time>1970-01-01T00:00:00Z</time>
      </trkpt>
      <trkpt lat="38.179975" lon="-5.882162">
        <ele>594.5</ele>
        <time>1970-01-01T00:00:00Z</time>
      </trkpt>
      <trkpt lat="38.180443" lon="-5.882284">
        <ele>594.0</ele>
        <time>1970-01-01T00:00:00Z</time>
      </trkpt>
      <trkpt lat="38.180729" lon="-5.882347">
        <ele>593.5</ele>
        <time>1970-01-01T00:00:00Z</time>
      </trkpt>
      <trkpt lat="38.181140" lon="-5.882312">
        <ele>591.7</ele>
        <time>1970-01-01T00:00:00Z</time>
      </trkpt>
      <trkpt lat="38.181571" lon="-5.882277">
        <ele>591.2</ele>
        <time>1970-01-01T00:00:00Z</time>
      </trkpt>
      <trkpt lat="38.182047" lon="-5.882114">
        <ele>590.7</ele>
        <time>1970-01-01T00:00:00Z</time>
      </trkpt>
      <trkpt lat="38.182853" lon="-5.881860">
        <ele>587.9</ele>
        <time>1970-01-01T00:00:00Z</time>
      </trkpt>
      <trkpt lat="38.185624" lon="-5.880904">
        <ele>583.3</ele>
        <time>1970-01-01T00:00:00Z</time>
      </trkpt>
      <trkpt lat="38.187010" lon="-5.880438">
        <ele>582.2</ele>
        <time>1970-01-01T00:00:00Z</time>
      </trkpt>
      <trkpt lat="38.187817" lon="-5.880133">
        <ele>578.9</ele>
        <time>1970-01-01T00:00:00Z</time>
      </trkpt>
      <trkpt lat="38.188274" lon="-5.879891">
        <ele>578.0</ele>
        <time>1970-01-01T00:00:00Z</time>
      </trkpt>
      <trkpt lat="38.188633" lon="-5.879463">
        <ele>577.2</ele>
        <time>1970-01-01T00:00:00Z</time>
      </trkpt>
      <trkpt lat="38.188850" lon="-5.879004">
        <ele>578.1</ele>
        <time>1970-01-01T00:00:00Z</time>
      </trkpt>
      <trkpt lat="38.188989" lon="-5.878360">
        <ele>579.9</ele>
        <time>1970-01-01T00:00:00Z</time>
      </trkpt>
      <trkpt lat="38.189063" lon="-5.877843">
        <ele>581.9</ele>
        <time>1970-01-01T00:00:00Z</time>
      </trkpt>
      <trkpt lat="38.189124" lon="-5.877014">
        <ele>581.2</ele>
        <time>1970-01-01T00:00:00Z</time>
      </trkpt>
      <trkpt lat="38.189204" lon="-5.876264">
        <ele>581.6</ele>
        <time>1970-01-01T00:00:00Z</time>
      </trkpt>
      <trkpt lat="38.189275" lon="-5.875045">
        <ele>580.9</ele>
        <time>1970-01-01T00:00:00Z</time>
      </trkpt>
      <trkpt lat="38.189334" lon="-5.874294">
        <ele>582.6</ele>
        <time>1970-01-01T00:00:00Z</time>
      </trkpt>
      <trkpt lat="38.189369" lon="-5.873724">
        <ele>583.8</ele>
        <time>1970-01-01T00:00:00Z</time>
      </trkpt>
      <trkpt lat="38.189402" lon="-5.873205">
        <ele>582.9</ele>
        <time>1970-01-01T00:00:00Z</time>
      </trkpt>
      <trkpt lat="38.189580" lon="-5.872641">
        <ele>581.8</ele>
        <time>1970-01-01T00:00:00Z</time>
      </trkpt>
      <trkpt lat="38.189860" lon="-5.872106">
        <ele>581.9</ele>
        <time>1970-01-01T00:00:00Z</time>
      </trkpt>
      <trkpt lat="38.190219" lon="-5.871653">
        <ele>582.8</ele>
        <time>1970-01-01T00:00:00Z</time>
      </trkpt>
      <trkpt lat="38.190553" lon="-5.871432">
        <ele>583.5</ele>
        <time>1970-01-01T00:00:00Z</time>
      </trkpt>
      <trkpt lat="38.190863" lon="-5.871314">
        <ele>585.0</ele>
        <time>1970-01-01T00:00:00Z</time>
      </trkpt>
      <trkpt lat="38.191130" lon="-5.871325">
        <ele>586.4</ele>
        <time>1970-01-01T00:00:00Z</time>
      </trkpt>
      <trkpt lat="38.191539" lon="-5.871341">
        <ele>586.2</ele>
        <time>1970-01-01T00:00:00Z</time>
      </trkpt>
      <trkpt lat="38.192745" lon="-5.871518">
        <ele>587.4</ele>
        <time>1970-01-01T00:00:00Z</time>
      </trkpt>
      <trkpt lat="38.194317" lon="-5.871814">
        <ele>592.7</ele>
        <time>1970-01-01T00:00:00Z</time>
      </trkpt>
      <trkpt lat="38.194808" lon="-5.871833">
        <ele>595.0</ele>
        <time>1970-01-01T00:00:00Z</time>
      </trkpt>
      <trkpt lat="38.195489" lon="-5.871678">
        <ele>597.4</ele>
        <time>1970-01-01T00:00:00Z</time>
      </trkpt>
      <trkpt lat="38.196150" lon="-5.871496">
        <ele>599.5</ele>
        <time>1970-01-01T00:00:00Z</time>
      </trkpt>
      <trkpt lat="38.196975" lon="-5.871295">
        <ele>600.5</ele>
        <time>1970-01-01T00:00:00Z</time>
      </trkpt>
      <trkpt lat="38.197662" lon="-5.870854">
        <ele>603.0</ele>
        <time>1970-01-01T00:00:00Z</time>
      </trkpt>
      <trkpt lat="38.198248" lon="-5.870383">
        <ele>607.8</ele>
        <time>1970-01-01T00:00:00Z</time>
      </trkpt>
      <trkpt lat="38.198922" lon="-5.869656">
        <ele>608.8</ele>
        <time>1970-01-01T00:00:00Z</time>
      </trkpt>
      <trkpt lat="38.199452" lon="-5.868949">
        <ele>607.9</ele>
        <time>1970-01-01T00:00:00Z</time>
      </trkpt>
      <trkpt lat="38.199817" lon="-5.868262">
        <ele>609.0</ele>
        <time>1970-01-01T00:00:00Z</time>
      </trkpt>
      <trkpt lat="38.200020" lon="-5.867542">
        <ele>609.7</ele>
        <time>1970-01-01T00:00:00Z</time>
      </trkpt>
      <trkpt lat="38.200335" lon="-5.866385">
        <ele>607.7</ele>
        <time>1970-01-01T00:00:00Z</time>
      </trkpt>
      <trkpt lat="38.200650" lon="-5.865228">
        <ele>606.5</ele>
        <time>1970-01-01T00:00:00Z</time>
      </trkpt>
      <trkpt lat="38.200741" lon="-5.864868">
        <ele>605.0</ele>
        <time>1970-01-01T00:00:00Z</time>
      </trkpt>
      <trkpt lat="38.200879" lon="-5.864249">
        <ele>606.0</ele>
        <time>1970-01-01T00:00:00Z</time>
      </trkpt>
      <trkpt lat="38.201097" lon="-5.863738">
        <ele>608.9</ele>
        <time>1970-01-01T00:00:00Z</time>
      </trkpt>
      <trkpt lat="38.201354" lon="-5.863307">
        <ele>609.8</ele>
        <time>1970-01-01T00:00:00Z</time>
      </trkpt>
      <trkpt lat="38.201758" lon="-5.862699">
        <ele>611.0</ele>
        <time>1970-01-01T00:00:00Z</time>
      </trkpt>
      <trkpt lat="38.202436" lon="-5.861816">
        <ele>611.0</ele>
        <time>1970-01-01T00:00:00Z</time>
      </trkpt>
      <trkpt lat="38.203094" lon="-5.860880">
        <ele>612.8</ele>
        <time>1970-01-01T00:00:00Z</time>
      </trkpt>
      <trkpt lat="38.203480" lon="-5.860219">
        <ele>613.8</ele>
        <time>1970-01-01T00:00:00Z</time>
      </trkpt>
      <trkpt lat="38.203680" lon="-5.859577">
        <ele>614.9</ele>
        <time>1970-01-01T00:00:00Z</time>
      </trkpt>
      <trkpt lat="38.203820" lon="-5.858855">
        <ele>614.0</ele>
        <time>1970-01-01T00:00:00Z</time>
      </trkpt>
      <trkpt lat="38.204090" lon="-5.857072">
        <ele>613.9</ele>
        <time>1970-01-01T00:00:00Z</time>
      </trkpt>
      <trkpt lat="38.204195" lon="-5.856089">
        <ele>612.3</ele>
        <time>1970-01-01T00:00:00Z</time>
      </trkpt>
      <trkpt lat="38.204268" lon="-5.854793">
        <ele>611.7</ele>
        <time>1970-01-01T00:00:00Z</time>
      </trkpt>
      <trkpt lat="38.204372" lon="-5.853887">
        <ele>612.7</ele>
        <time>1970-01-01T00:00:00Z</time>
      </trkpt>
      <trkpt lat="38.204485" lon="-5.853476">
        <ele>613.6</ele>
        <time>1970-01-01T00:00:00Z</time>
      </trkpt>
      <trkpt lat="38.204685" lon="-5.852808">
        <ele>613.4</ele>
        <time>1970-01-01T00:00:00Z</time>
      </trkpt>
      <trkpt lat="38.204902" lon="-5.852348">
        <ele>613.0</ele>
        <time>1970-01-01T00:00:00Z</time>
      </trkpt>
      <trkpt lat="38.205115" lon="-5.852019">
        <ele>613.3</ele>
        <time>1970-01-01T00:00:00Z</time>
      </trkpt>
      <trkpt lat="38.205410" lon="-5.851666">
        <ele>612.9</ele>
        <time>1970-01-01T00:00:00Z</time>
      </trkpt>
      <trkpt lat="38.205871" lon="-5.851295">
        <ele>611.2</ele>
        <time>1970-01-01T00:00:00Z</time>
      </trkpt>
      <trkpt lat="38.206995" lon="-5.850611">
        <ele>611.2</ele>
        <time>1970-01-01T00:00:00Z</time>
      </trkpt>
      <trkpt lat="38.207350" lon="-5.850339">
        <ele>609.2</ele>
        <time>1970-01-01T00:00:00Z</time>
      </trkpt>
      <trkpt lat="38.207645" lon="-5.850012">
        <ele>609.1</ele>
        <time>1970-01-01T00:00:00Z</time>
      </trkpt>
      <trkpt lat="38.207902" lon="-5.849555">
        <ele>607.8</ele>
        <time>1970-01-01T00:00:00Z</time>
      </trkpt>
      <trkpt lat="38.208015" lon="-5.849143">
        <ele>606.9</ele>
        <time>1970-01-01T00:00:00Z</time>
      </trkpt>
      <trkpt lat="38.208070" lon="-5.848548">
        <ele>602.7</ele>
        <time>1970-01-01T00:00:00Z</time>
      </trkpt>
      <trkpt lat="38.208052" lon="-5.847585">
        <ele>600.3</ele>
        <time>1970-01-01T00:00:00Z</time>
      </trkpt>
      <trkpt lat="38.208060" lon="-5.846442">
        <ele>604.7</ele>
        <time>1970-01-01T00:00:00Z</time>
      </trkpt>
      <trkpt lat="38.208072" lon="-5.845923">
        <ele>605.0</ele>
        <time>1970-01-01T00:00:00Z</time>
      </trkpt>
      <trkpt lat="38.208187" lon="-5.845407">
        <ele>604.4</ele>
        <time>1970-01-01T00:00:00Z</time>
      </trkpt>
      <trkpt lat="38.208338" lon="-5.845101">
        <ele>603.8</ele>
        <time>1970-01-01T00:00:00Z</time>
      </trkpt>
      <trkpt lat="38.208614" lon="-5.844722">
        <ele>603.6</ele>
        <time>1970-01-01T00:00:00Z</time>
      </trkpt>
      <trkpt lat="38.209102" lon="-5.844039">
        <ele>601.0</ele>
        <time>1970-01-01T00:00:00Z</time>
      </trkpt>
      <trkpt lat="38.209653" lon="-5.843333">
        <ele>598.8</ele>
        <time>1970-01-01T00:00:00Z</time>
      </trkpt>
      <trkpt lat="38.209908" lon="-5.842953">
        <ele>597.3</ele>
        <time>1970-01-01T00:00:00Z</time>
      </trkpt>
      <trkpt lat="38.210086" lon="-5.842362">
        <ele>595.6</ele>
        <time>1970-01-01T00:00:00Z</time>
      </trkpt>
      <trkpt lat="38.210162" lon="-5.841794">
        <ele>594.4</ele>
        <time>1970-01-01T00:00:00Z</time>
      </trkpt>
      <trkpt lat="38.210177" lon="-5.841144">
        <ele>593.0</ele>
        <time>1970-01-01T00:00:00Z</time>
      </trkpt>
      <trkpt lat="38.210117" lon="-5.840258">
        <ele>592.7</ele>
        <time>1970-01-01T00:00:00Z</time>
      </trkpt>
      <trkpt lat="38.210002" lon="-5.839084">
        <ele>592.3</ele>
        <time>1970-01-01T00:00:00Z</time>
      </trkpt>
      <trkpt lat="38.209957" lon="-5.838407">
        <ele>592.2</ele>
        <time>1970-01-01T00:00:00Z</time>
      </trkpt>
      <trkpt lat="38.209971" lon="-5.837809">
        <ele>592.3</ele>
        <time>1970-01-01T00:00:00Z</time>
      </trkpt>
      <trkpt lat="38.210064" lon="-5.837345">
        <ele>592.4</ele>
        <time>1970-01-01T00:00:00Z</time>
      </trkpt>
      <trkpt lat="38.210216" lon="-5.837013">
        <ele>592.2</ele>
        <time>1970-01-01T00:00:00Z</time>
      </trkpt>
      <trkpt lat="38.210472" lon="-5.836607">
        <ele>590.3</ele>
        <time>1970-01-01T00:00:00Z</time>
      </trkpt>
      <trkpt lat="38.210787" lon="-5.836308">
        <ele>589.0</ele>
        <time>1970-01-01T00:00:00Z</time>
      </trkpt>
      <trkpt lat="38.211038" lon="-5.836084">
        <ele>588.2</ele>
        <time>1970-01-01T00:00:00Z</time>
      </trkpt>
      <trkpt lat="38.213204" lon="-5.834712">
        <ele>592.7</ele>
        <time>1970-01-01T00:00:00Z</time>
      </trkpt>
      <trkpt lat="38.214769" lon="-5.833603">
        <ele>589.9</ele>
        <time>1970-01-01T00:00:00Z</time>
      </trkpt>
      <trkpt lat="38.215292" lon="-5.833182">
        <ele>587.1</ele>
        <time>1970-01-01T00:00:00Z</time>
      </trkpt>
      <trkpt lat="38.215590" lon="-5.832725">
        <ele>585.1</ele>
        <time>1970-01-01T00:00:00Z</time>
      </trkpt>
      <trkpt lat="38.215854" lon="-5.831982">
        <ele>583.0</ele>
        <time>1970-01-01T00:00:00Z</time>
      </trkpt>
      <trkpt lat="38.215903" lon="-5.831646">
        <ele>582.4</ele>
        <time>1970-01-01T00:00:00Z</time>
      </trkpt>
      <trkpt lat="38.215872" lon="-5.831229">
        <ele>582.5</ele>
        <time>1970-01-01T00:00:00Z</time>
      </trkpt>
      <trkpt lat="38.215801" lon="-5.830784">
        <ele>581.1</ele>
        <time>1970-01-01T00:00:00Z</time>
      </trkpt>
      <trkpt lat="38.215619" lon="-5.829815">
        <ele>580.7</ele>
        <time>1970-01-01T00:00:00Z</time>
      </trkpt>
      <trkpt lat="38.215518" lon="-5.828902">
        <ele>579.3</ele>
        <time>1970-01-01T00:00:00Z</time>
      </trkpt>
      <trkpt lat="38.215511" lon="-5.828356">
        <ele>579.2</ele>
        <time>1970-01-01T00:00:00Z</time>
      </trkpt>
      <trkpt lat="38.215544" lon="-5.827837">
        <ele>581.4</ele>
        <time>1970-01-01T00:00:00Z</time>
      </trkpt>
      <trkpt lat="38.215593" lon="-5.827501">
        <ele>583.6</ele>
        <time>1970-01-01T00:00:00Z</time>
      </trkpt>
      <trkpt lat="38.215770" lon="-5.826962">
        <ele>586.9</ele>
        <time>1970-01-01T00:00:00Z</time>
      </trkpt>
      <trkpt lat="38.216093" lon="-5.826325">
        <ele>587.0</ele>
        <time>1970-01-01T00:00:00Z</time>
      </trkpt>
      <trkpt lat="38.216347" lon="-5.825971">
        <ele>586.0</ele>
        <time>1970-01-01T00:00:00Z</time>
      </trkpt>
      <trkpt lat="38.216937" lon="-5.825344">
        <ele>588.9</ele>
        <time>1970-01-01T00:00:00Z</time>
      </trkpt>
      <trkpt lat="38.218218" lon="-5.824093">
        <ele>588.8</ele>
        <time>1970-01-01T00:00:00Z</time>
      </trkpt>
      <trkpt lat="38.218551" lon="-5.823872">
        <ele>588.1</ele>
        <time>1970-01-01T00:00:00Z</time>
      </trkpt>
      <trkpt lat="38.218864" lon="-5.823651">
        <ele>586.6</ele>
        <time>1970-01-01T00:00:00Z</time>
      </trkpt>
      <trkpt lat="38.219399" lon="-5.823567">
        <ele>587.7</ele>
        <time>1970-01-01T00:00:00Z</time>
      </trkpt>
      <trkpt lat="38.220077" lon="-5.823515">
        <ele>589.0</ele>
        <time>1970-01-01T00:00:00Z</time>
      </trkpt>
      <trkpt lat="38.220919" lon="-5.823496">
        <ele>586.4</ele>
        <time>1970-01-01T00:00:00Z</time>
      </trkpt>
      <trkpt lat="38.221329" lon="-5.823486">
        <ele>586.1</ele>
        <time>1970-01-01T00:00:00Z</time>
      </trkpt>
      <trkpt lat="38.221787" lon="-5.823218">
        <ele>588.3</ele>
        <time>1970-01-01T00:00:00Z</time>
      </trkpt>
      <trkpt lat="38.222165" lon="-5.822816">
        <ele>590.0</ele>
        <time>1970-01-01T00:00:00Z</time>
      </trkpt>
      <trkpt lat="38.222467" lon="-5.822230">
        <ele>592.3</ele>
        <time>1970-01-01T00:00:00Z</time>
      </trkpt>
      <trkpt lat="38.222582" lon="-5.821689">
        <ele>594.9</ele>
        <time>1970-01-01T00:00:00Z</time>
      </trkpt>
      <trkpt lat="38.222616" lon="-5.821118">
        <ele>596.9</ele>
        <time>1970-01-01T00:00:00Z</time>
      </trkpt>
      <trkpt lat="38.222589" lon="-5.820571">
        <ele>597.8</ele>
        <time>1970-01-01T00:00:00Z</time>
      </trkpt>
      <trkpt lat="38.222457" lon="-5.820072">
        <ele>598.1</ele>
        <time>1970-01-01T00:00:00Z</time>
      </trkpt>
      <trkpt lat="38.222349" lon="-5.819444">
        <ele>597.6</ele>
        <time>1970-01-01T00:00:00Z</time>
      </trkpt>
      <trkpt lat="38.222319" lon="-5.819001">
        <ele>596.6</ele>
        <time>1970-01-01T00:00:00Z</time>
      </trkpt>
      <trkpt lat="38.222391" lon="-5.818536">
        <ele>596.7</ele>
        <time>1970-01-01T00:00:00Z</time>
      </trkpt>
      <trkpt lat="38.222526" lon="-5.818047">
        <ele>596.4</ele>
        <time>1970-01-01T00:00:00Z</time>
      </trkpt>
      <trkpt lat="38.222761" lon="-5.817666">
        <ele>597.2</ele>
        <time>1970-01-01T00:00:00Z</time>
      </trkpt>
      <trkpt lat="38.223080" lon="-5.817185">
        <ele>597.8</ele>
        <time>1970-01-01T00:00:00Z</time>
      </trkpt>
      <trkpt lat="38.223692" lon="-5.816454">
        <ele>599.6</ele>
        <time>1970-01-01T00:00:00Z</time>
      </trkpt>
      <trkpt lat="38.224011" lon="-5.815999">
        <ele>599.0</ele>
        <time>1970-01-01T00:00:00Z</time>
      </trkpt>
      <trkpt lat="38.224185" lon="-5.815590">
        <ele>599.0</ele>
        <time>1970-01-01T00:00:00Z</time>
      </trkpt>
      <trkpt lat="38.224343" lon="-5.814972">
        <ele>597.3</ele>
        <time>1970-01-01T00:00:00Z</time>
      </trkpt>
      <trkpt lat="38.224533" lon="-5.813887">
        <ele>594.7</ele>
        <time>1970-01-01T00:00:00Z</time>
      </trkpt>
      <trkpt lat="38.224715" lon="-5.813166">
        <ele>592.6</ele>
        <time>1970-01-01T00:00:00Z</time>
      </trkpt>
      <trkpt lat="38.224921" lon="-5.812264">
        <ele>592.1</ele>
        <time>1970-01-01T00:00:00Z</time>
      </trkpt>
      <trkpt lat="38.225123" lon="-5.811544">
        <ele>592.2</ele>
        <time>1970-01-01T00:00:00Z</time>
      </trkpt>
      <trkpt lat="38.225424" lon="-5.810932">
        <ele>590.0</ele>
        <time>1970-01-01T00:00:00Z</time>
      </trkpt>
      <trkpt lat="38.225921" lon="-5.809885">
        <ele>592.8</ele>
        <time>1970-01-01T00:00:00Z</time>
      </trkpt>
      <trkpt lat="38.226201" lon="-5.809324">
        <ele>593.1</ele>
        <time>1970-01-01T00:00:00Z</time>
      </trkpt>
      <trkpt lat="38.226479" lon="-5.808841">
        <ele>590.8</ele>
        <time>1970-01-01T00:00:00Z</time>
      </trkpt>
      <trkpt lat="38.226756" lon="-5.808410">
        <ele>589.2</ele>
        <time>1970-01-01T00:00:00Z</time>
      </trkpt>
      <trkpt lat="38.227093" lon="-5.808059">
        <ele>588.8</ele>
        <time>1970-01-01T00:00:00Z</time>
      </trkpt>
      <trkpt lat="38.227365" lon="-5.807835">
        <ele>589.2</ele>
        <time>1970-01-01T00:00:00Z</time>
      </trkpt>
      <trkpt lat="38.228300" lon="-5.807325">
        <ele>593.9</ele>
        <time>1970-01-01T00:00:00Z</time>
      </trkpt>
      <trkpt lat="38.229442" lon="-5.806719">
        <ele>594.9</ele>
        <time>1970-01-01T00:00:00Z</time>
      </trkpt>
      <trkpt lat="38.229938" lon="-5.806582">
        <ele>592.3</ele>
        <time>1970-01-01T00:00:00Z</time>
      </trkpt>
      <trkpt lat="38.230492" lon="-5.806552">
        <ele>590.0</ele>
        <time>1970-01-01T00:00:00Z</time>
      </trkpt>
      <trkpt lat="38.231499" lon="-5.806460">
        <ele>591.8</ele>
        <time>1970-01-01T00:00:00Z</time>
      </trkpt>
      <trkpt lat="38.233388" lon="-5.806351">
        <ele>591.3</ele>
        <time>1970-01-01T00:00:00Z</time>
      </trkpt>
      <trkpt lat="38.233902" lon="-5.806293">
        <ele>591.1</ele>
        <time>1970-01-01T00:00:00Z</time>
      </trkpt>
      <trkpt lat="38.234233" lon="-5.806176">
        <ele>591.6</ele>
        <time>1970-01-01T00:00:00Z</time>
      </trkpt>
      <trkpt lat="38.234734" lon="-5.805831">
        <ele>593.4</ele>
        <time>1970-01-01T00:00:00Z</time>
      </trkpt>
      <trkpt lat="38.235154" lon="-5.805431">
        <ele>597.5</ele>
        <time>1970-01-01T00:00:00Z</time>
      </trkpt>
      <trkpt lat="38.235659" lon="-5.804852">
        <ele>598.1</ele>
        <time>1970-01-01T00:00:00Z</time>
      </trkpt>
      <trkpt lat="38.236711" lon="-5.803775">
        <ele>601.9</ele>
        <time>1970-01-01T00:00:00Z</time>
      </trkpt>
      <trkpt lat="38.238373" lon="-5.801993">
        <ele>604.6</ele>
        <time>1970-01-01T00:00:00Z</time>
      </trkpt>
      <trkpt lat="38.238771" lon="-5.801644">
        <ele>604.2</ele>
        <time>1970-01-01T00:00:00Z</time>
      </trkpt>
      <trkpt lat="38.239189" lon="-5.801348">
        <ele>604.0</ele>
        <time>1970-01-01T00:00:00Z</time>
      </trkpt>
      <trkpt lat="38.240606" lon="-5.800388">
        <ele>606.0</ele>
        <time>1970-01-01T00:00:00Z</time>
      </trkpt>
      <trkpt lat="38.243397" lon="-5.798597">
        <ele>608.0</ele>
        <time>1970-01-01T00:00:00Z</time>
      </trkpt>
      <trkpt lat="38.244292" lon="-5.798007">
        <ele>604.4</ele>
        <time>1970-01-01T00:00:00Z</time>
      </trkpt>
      <trkpt lat="38.244774" lon="-5.797584">
        <ele>604.8</ele>
        <time>1970-01-01T00:00:00Z</time>
      </trkpt>
      <trkpt lat="38.245302" lon="-5.796980">
        <ele>605.6</ele>
        <time>1970-01-01T00:00:00Z</time>
      </trkpt>
      <trkpt lat="38.245814" lon="-5.796116">
        <ele>605.0</ele>
        <time>1970-01-01T00:00:00Z</time>
      </trkpt>
      <trkpt lat="38.246842" lon="-5.794309">
        <ele>601.3</ele>
        <time>1970-01-01T00:00:00Z</time>
      </trkpt>
      <trkpt lat="38.248269" lon="-5.792075">
        <ele>604.7</ele>
        <time>1970-01-01T00:00:00Z</time>
      </trkpt>
      <trkpt lat="38.248693" lon="-5.791493">
        <ele>603.4</ele>
        <time>1970-01-01T00:00:00Z</time>
      </trkpt>
      <trkpt lat="38.249773" lon="-5.790052">
        <ele>601.0</ele>
        <time>1970-01-01T00:00:00Z</time>
      </trkpt>
      <trkpt lat="38.250624" lon="-5.788784">
        <ele>602.0</ele>
        <time>1970-01-01T00:00:00Z</time>
      </trkpt>
      <trkpt lat="38.251576" lon="-5.787546">
        <ele>602.0</ele>
        <time>1970-01-01T00:00:00Z</time>
      </trkpt>
      <trkpt lat="38.252969" lon="-5.785857">
        <ele>602.4</ele>
        <time>1970-01-01T00:00:00Z</time>
      </trkpt>
      <trkpt lat="38.253750" lon="-5.784951">
        <ele>605.3</ele>
        <time>1970-01-01T00:00:00Z</time>
      </trkpt>
      <trkpt lat="38.254024" lon="-5.784623">
        <ele>603.6</ele>
        <time>1970-01-01T00:00:00Z</time>
      </trkpt>
      <trkpt lat="38.254513" lon="-5.783914">
        <ele>602.8</ele>
        <time>1970-01-01T00:00:00Z</time>
      </trkpt>
      <trkpt lat="38.255284" lon="-5.782539">
        <ele>608.7</ele>
        <time>1970-01-01T00:00:00Z</time>
      </trkpt>
      <trkpt lat="38.260186" lon="-5.774715">
        <ele>595.2</ele>
        <time>1970-01-01T00:00:00Z</time>
      </trkpt>
      <trkpt lat="38.261827" lon="-5.772073">
        <ele>592.0</ele>
        <time>1970-01-01T00:00:00Z</time>
      </trkpt>
      <trkpt lat="38.263491" lon="-5.769353">
        <ele>591.2</ele>
        <time>1970-01-01T00:00:00Z</time>
      </trkpt>
      <trkpt lat="38.264172" lon="-5.768286">
        <ele>590.5</ele>
        <time>1970-01-01T00:00:00Z</time>
      </trkpt>
      <trkpt lat="38.264924" lon="-5.766858">
        <ele>595.7</ele>
        <time>1970-01-01T00:00:00Z</time>
      </trkpt>
      <trkpt lat="38.265507" lon="-5.765606">
        <ele>596.2</ele>
        <time>1970-01-01T00:00:00Z</time>
      </trkpt>
      <trkpt lat="38.265862" lon="-5.764449">
        <ele>596.3</ele>
        <time>1970-01-01T00:00:00Z</time>
      </trkpt>
      <trkpt lat="38.266095" lon="-5.763287">
        <ele>590.0</ele>
        <time>1970-01-01T00:00:00Z</time>
      </trkpt>
      <trkpt lat="38.266265" lon="-5.762175">
        <ele>592.3</ele>
        <time>1970-01-01T00:00:00Z</time>
      </trkpt>
      <trkpt lat="38.266301" lon="-5.761500">
        <ele>592.7</ele>
        <time>1970-01-01T00:00:00Z</time>
      </trkpt>
      <trkpt lat="38.266304" lon="-5.760512">
        <ele>593.7</ele>
        <time>1970-01-01T00:00:00Z</time>
      </trkpt>
      <trkpt lat="38.266336" lon="-5.758276">
        <ele>595.0</ele>
        <time>1970-01-01T00:00:00Z</time>
      </trkpt>
      <trkpt lat="38.266320" lon="-5.753697">
        <ele>591.0</ele>
        <time>1970-01-01T00:00:00Z</time>
      </trkpt>
      <trkpt lat="38.266286" lon="-5.751693">
        <ele>585.1</ele>
        <time>1970-01-01T00:00:00Z</time>
      </trkpt>
      <trkpt lat="38.266275" lon="-5.749534">
        <ele>585.8</ele>
        <time>1970-01-01T00:00:00Z</time>
      </trkpt>
      <trkpt lat="38.266249" lon="-5.748883">
        <ele>586.4</ele>
        <time>1970-01-01T00:00:00Z</time>
      </trkpt>
      <trkpt lat="38.266181" lon="-5.748282">
        <ele>586.1</ele>
        <time>1970-01-01T00:00:00Z</time>
      </trkpt>
      <trkpt lat="38.266055" lon="-5.747549">
        <ele>586.4</ele>
        <time>1970-01-01T00:00:00Z</time>
      </trkpt>
      <trkpt lat="38.265874" lon="-5.746501">
        <ele>588.0</ele>
        <time>1970-01-01T00:00:00Z</time>
      </trkpt>
      <trkpt lat="38.265384" lon="-5.743778">
        <ele>591.0</ele>
        <time>1970-01-01T00:00:00Z</time>
      </trkpt>
      <trkpt lat="38.264293" lon="-5.737832">
        <ele>591.0</ele>
        <time>1970-01-01T00:00:00Z</time>
      </trkpt>
      <trkpt lat="38.263542" lon="-5.733955">
        <ele>591.5</ele>
        <time>1970-01-01T00:00:00Z</time>
      </trkpt>
      <trkpt lat="38.262886" lon="-5.730419">
        <ele>591.0</ele>
        <time>1970-01-01T00:00:00Z</time>
      </trkpt>
      <trkpt lat="38.262326" lon="-5.727198">
        <ele>593.0</ele>
        <time>1970-01-01T00:00:00Z</time>
      </trkpt>
      <trkpt lat="38.261993" lon="-5.725625">
        <ele>589.0</ele>
        <time>1970-01-01T00:00:00Z</time>
      </trkpt>
      <trkpt lat="38.261871" lon="-5.724710">
        <ele>591.3</ele>
        <time>1970-01-01T00:00:00Z</time>
      </trkpt>
      <trkpt lat="38.261865" lon="-5.724086">
        <ele>592.1</ele>
        <time>1970-01-01T00:00:00Z</time>
      </trkpt>
      <trkpt lat="38.261838" lon="-5.721692">
        <ele>597.0</ele>
        <time>1970-01-01T00:00:00Z</time>
      </trkpt>
      <trkpt lat="38.261794" lon="-5.719167">
        <ele>595.8</ele>
        <time>1970-01-01T00:00:00Z</time>
      </trkpt>
      <trkpt lat="38.261747" lon="-5.716799">
        <ele>591.3</ele>
        <time>1970-01-01T00:00:00Z</time>
      </trkpt>
      <trkpt lat="38.261741" lon="-5.716174">
        <ele>588.6</ele>
        <time>1970-01-01T00:00:00Z</time>
      </trkpt>
      <trkpt lat="38.261689" lon="-5.715730">
        <ele>586.9</ele>
        <time>1970-01-01T00:00:00Z</time>
      </trkpt>
      <trkpt lat="38.261616" lon="-5.715363">
        <ele>585.5</ele>
        <time>1970-01-01T00:00:00Z</time>
      </trkpt>
      <trkpt lat="38.261493" lon="-5.714951">
        <ele>584.0</ele>
        <time>1970-01-01T00:00:00Z</time>
      </trkpt>
      <trkpt lat="38.260994" lon="-5.713450">
        <ele>583.3</ele>
        <time>1970-01-01T00:00:00Z</time>
      </trkpt>
      <trkpt lat="38.260624" lon="-5.711889">
        <ele>585.9</ele>
        <time>1970-01-01T00:00:00Z</time>
      </trkpt>
      <trkpt lat="38.260403" lon="-5.710431">
        <ele>587.0</ele>
        <time>1970-01-01T00:00:00Z</time>
      </trkpt>
      <trkpt lat="38.260294" lon="-5.708557">
        <ele>590.8</ele>
        <time>1970-01-01T00:00:00Z</time>
      </trkpt>
      <trkpt lat="38.260253" lon="-5.707041">
        <ele>591.0</ele>
        <time>1970-01-01T00:00:00Z</time>
      </trkpt>
      <trkpt lat="38.260358" lon="-5.705787">
        <ele>592.0</ele>
        <time>1970-01-01T00:00:00Z</time>
      </trkpt>
      <trkpt lat="38.260561" lon="-5.703603">
        <ele>588.0</ele>
        <time>1970-01-01T00:00:00Z</time>
      </trkpt>
      <trkpt lat="38.260771" lon="-5.701538">
        <ele>583.0</ele>
        <time>1970-01-01T00:00:00Z</time>
      </trkpt>
      <trkpt lat="38.260947" lon="-5.700536">
        <ele>581.0</ele>
        <time>1970-01-01T00:00:00Z</time>
      </trkpt>
      <trkpt lat="38.261213" lon="-5.699615">
        <ele>582.3</ele>
        <time>1970-01-01T00:00:00Z</time>
      </trkpt>
      <trkpt lat="38.261576" lon="-5.698464">
        <ele>581.0</ele>
        <time>1970-01-01T00:00:00Z</time>
      </trkpt>
      <trkpt lat="38.262252" lon="-5.697015">
        <ele>580.1</ele>
        <time>1970-01-01T00:00:00Z</time>
      </trkpt>
      <trkpt lat="38.263515" lon="-5.695316">
        <ele>581.0</ele>
        <time>1970-01-01T00:00:00Z</time>
      </trkpt>
      <trkpt lat="38.266732" lon="-5.691089">
        <ele>578.1</ele>
        <time>1970-01-01T00:00:00Z</time>
      </trkpt>
    </trkseg>
  </trk>
</gpx>
